Tracking 29510 objects as of 16-Sep-2024
HD Live streaming from Space Station
objects crossing your sky now

FENGYUN 1C DEB

Track FENGYUN 1C DEB now!
10-day predictions


NORAD ID: 31312
Int'l Code: 1999-025BPQ
Perigee: 854.6 km
Apogee: 947.7 km
Inclination: 98.8 °
Period: 102.9 minutes
Semi major axis: 7272 km
RCS: 0.0157 m2 (small)
Launch date: May 10, 1999
Source: People's Republic of China (PRC)
Launch site: Taiyaun Space Center, China (TSC)

Note: This is SATELLITE DEBRIS
Your satellite tracking list
Your tracking list is empty




NASA's NSSDC Master Catalog

Two Line Element Set (TLE):
1 31312U 99025BPQ 24259.47402479  .00002026  00000-0  13828-2 0  9998
2 31312  98.8215 254.2320 0064005  56.7211  95.7525 13.99929652888013
Source of the keplerian elements: AFSPC